Time,TemperatureF,DewpointF,PressureIn,WindDirection,WindDirectionDegrees,WindSpeedMPH,WindSpeedGustMPH,Humidity,HourlyPrecipIn,Conditions,Clouds,dailyrainin,SoftwareType,DateUTC
2013-04-29 00:03:00,70.0,62.0,30.04,ENE,76,0.0,0.0,76,0.00,,,0.00,,2013-04-29 04:03:00,
2013-04-29 00:13:00,70.0,62.0,30.04,ENE,76,0.0,0.0,76,0.00,,,0.00,,2013-04-29 04:13:00,
2013-04-29 00:23:00,70.0,62.0,30.04,ENE,76,0.0,0.0,77,0.00,,,0.00,,2013-04-29 04:23:00,
2013-04-29 00:33:00,70.0,63.0,30.04,East,94,0.0,0.0,79,0.00,,,0.00,,2013-04-29 04:33:00,
2013-04-29 00:43:00,70.0,63.0,30.04,East,94,0.0,0.0,79,0.00,,,0.00,,2013-04-29 04:43:00,
2013-04-29 00:52:00,69.0,63.0,30.04,East,94,0.0,0.0,80,0.00,,,0.00,,2013-04-29 04:52:00,
2013-04-29 01:02:00,69.0,63.0,30.04,East,94,0.0,0.0,81,0.00,,,0.00,,2013-04-29 05:02:00,
2013-04-29 01:12:00,69.0,63.0,30.04,East,94,0.0,0.0,81,0.00,,,0.00,,2013-04-29 05:12:00,
2013-04-29 01:22:00,69.0,63.0,30.05,ENE,63,0.0,0.0,82,0.00,,,0.00,,2013-04-29 05:22:00,
2013-04-29 01:32:00,68.0,63.0,30.04,East,83,0.0,0.0,83,0.00,,,0.00,,2013-04-29 05:32:00,
2013-04-29 01:42:00,68.0,63.0,30.04,East,83,0.0,0.0,83,0.00,,,0.00,,2013-04-29 05:42:00,
2013-04-29 01:52:00,68.0,63.0,30.04,East,83,0.0,0.0,83,0.00,,,0.00,,2013-04-29 05:52:00,
2013-04-29 02:02:00,68.0,63.0,30.03,East,83,0.0,0.0,83,0.00,,,0.00,,2013-04-29 06:02:00,
2013-04-29 02:11:00,68.0,63.0,30.03,East,83,0.0,0.0,83,0.00,,,0.00,,2013-04-29 06:11:00,
2013-04-29 02:21:00,68.0,63.0,30.03,East,83,0.0,0.0,83,0.00,,,0.00,,2013-04-29 06:21:00,
2013-04-29 02:32:00,68.0,63.0,30.03,ENE,66,0.0,0.0,84,0.00,,,0.00,,2013-04-29 06:32:00,
2013-04-29 02:42:00,68.0,63.0,30.03,ENE,66,0.0,0.0,84,0.00,,,0.00,,2013-04-29 06:42:00,
2013-04-29 02:52:00,68.0,64.0,30.02,ENE,66,0.0,0.0,86,0.00,,,0.00,,2013-04-29 06:52:00,
2013-04-29 03:01:00,68.0,64.0,30.02,ENE,66,0.0,0.0,86,0.00,,,0.00,,2013-04-29 07:01:00,
2013-04-29 03:11:00,68.0,64.0,30.02,ENE,66,0.0,0.0,86,0.00,,,0.00,,2013-04-29 07:11:00,
2013-04-29 03:21:00,68.0,64.0,30.02,ENE,66,0.0,0.0,86,0.00,,,0.00,,2013-04-29 07:21:00,
2013-04-29 03:32:00,68.0,64.0,30.01,SSE,163,0.0,0.0,86,0.00,,,0.00,,2013-04-29 07:32:00,
2013-04-29 03:42:00,68.0,64.0,30.01,SSE,163,0.0,0.0,86,0.00,,,0.00,,2013-04-29 07:42:00,
2013-04-29 03:52:00,68.0,63.0,30.01,SSE,163,0.0,0.0,85,0.00,,,0.00,,2013-04-29 07:52:00,
2013-04-29 04:03:00,68.0,63.0,30.01,SSE,163,0.0,0.0,85,0.00,,,0.00,,2013-04-29 08:03:00,
2013-04-29 04:11:00,68.0,63.0,30.01,SSE,163,0.0,0.0,85,0.00,,,0.00,,2013-04-29 08:11:00,
2013-04-29 04:21:00,68.0,64.0,30.00,SSE,163,0.0,0.0,86,0.00,,,0.00,,2013-04-29 08:21:00,
2013-04-29 04:32:00,68.0,64.0,30.00,SSE,163,0.0,0.0,86,0.00,,,0.00,,2013-04-29 08:32:00,
2013-04-29 04:42:00,68.0,64.0,30.00,SSE,163,0.0,0.0,86,0.00,,,0.00,,2013-04-29 08:42:00,
2013-04-29 04:52:00,68.0,64.0,29.99,SSE,163,0.0,0.0,87,0.00,,,0.00,,2013-04-29 08:52:00,
2013-04-29 05:01:00,68.0,64.0,29.99,SSE,163,0.0,0.0,86,0.00,,,0.00,,2013-04-29 09:01:00,
2013-04-29 05:12:00,68.0,64.0,29.99,SSE,163,0.0,0.0,86,0.00,,,0.00,,2013-04-29 09:12:00,
2013-04-29 05:21:00,67.0,63.0,30.00,SSE,163,0.0,0.0,87,0.00,,,0.00,,2013-04-29 09:21:00,
2013-04-29 05:33:00,67.0,63.0,30.00,SSE,163,0.0,0.0,88,0.00,,,0.00,,2013-04-29 09:33:00,
2013-04-29 05:42:00,67.0,63.0,30.00,SSE,163,0.0,0.0,88,0.00,,,0.00,,2013-04-29 09:42:00,
2013-04-29 05:53:00,67.0,64.0,30.01,SSE,163,0.0,0.0,89,0.00,,,0.00,,2013-04-29 09:53:00,
2013-04-29 06:02:00,66.0,63.0,30.02,SSE,163,0.0,0.0,90,0.00,,,0.00,,2013-04-29 10:02:00,
2013-04-29 06:12:00,66.0,63.0,30.02,SSE,163,0.0,0.0,90,0.00,,,0.00,,2013-04-29 10:12:00,
2013-04-29 06:23:00,66.0,64.0,30.02,SSE,163,0.0,0.0,92,0.00,,,0.00,,2013-04-29 10:23:00,
2013-04-29 06:32:00,66.0,64.0,30.02,SSE,163,0.0,0.0,92,0.00,,,0.00,,2013-04-29 10:32:00,
2013-04-29 06:42:00,66.0,64.0,30.02,SSE,163,0.0,0.0,92,0.00,,,0.00,,2013-04-29 10:42:00,
2013-04-29 06:52:00,66.0,64.0,30.02,SSE,163,0.0,0.0,93,0.00,,,0.00,,2013-04-29 10:52:00,
2013-04-29 07:03:00,65.0,63.0,30.03,SSE,163,0.0,0.0,93,0.00,,,0.00,,2013-04-29 11:03:00,
2013-04-29 07:12:00,65.0,63.0,30.03,SSE,163,0.0,0.0,93,0.00,,,0.00,,2013-04-29 11:12:00,
2013-04-29 07:21:00,65.0,63.0,30.03,SSE,163,0.0,0.0,94,0.00,,,0.00,,2013-04-29 11:21:00,
2013-04-29 07:32:00,65.0,64.0,30.03,SSE,163,0.0,0.0,95,0.00,,,0.00,,2013-04-29 11:32:00,
2013-04-29 07:42:00,65.0,64.0,30.03,SSE,163,0.0,0.0,95,0.00,,,0.00,,2013-04-29 11:42:00,
2013-04-29 07:52:00,66.0,65.0,30.03,SSE,163,0.0,0.0,96,0.00,,,0.00,,2013-04-29 11:52:00,
2013-04-29 08:01:00,67.0,66.0,30.04,SSE,163,0.0,0.0,97,0.00,,,0.00,,2013-04-29 12:01:00,
2013-04-29 08:12:00,67.0,66.0,30.04,SSE,163,0.0,0.0,97,0.00,,,0.00,,2013-04-29 12:12:00,
2013-04-29 08:22:00,68.0,67.0,30.04,SSE,163,0.0,0.0,96,0.00,,,0.00,,2013-04-29 12:22:00,
2013-04-29 08:32:00,69.0,68.0,30.04,SSE,163,0.0,0.0,95,0.00,,,0.00,,2013-04-29 12:32:00,
2013-04-29 08:42:00,69.0,68.0,30.04,SSE,163,0.0,0.0,95,0.00,,,0.00,,2013-04-29 12:42:00,
2013-04-29 08:52:00,71.0,68.0,30.04,East,90,0.0,0.0,91,0.00,,,0.00,,2013-04-29 12:52:00,
2013-04-29 09:01:00,73.0,69.0,30.04,East,90,0.0,0.0,86,0.00,,,0.00,,2013-04-29 13:01:00,
2013-04-29 09:11:00,73.0,69.0,30.04,East,90,0.0,0.0,86,0.00,,,0.00,,2013-04-29 13:11:00,
2013-04-29 09:21:00,75.0,68.0,30.04,North,359,0.0,0.0,78,0.00,,,0.00,,2013-04-29 13:21:00,
2013-04-29 09:32:00,77.0,67.0,30.03,North,359,3.0,0.0,71,0.00,,,0.00,,2013-04-29 13:32:00,
2013-04-29 09:42:00,77.0,67.0,30.03,North,359,3.0,0.0,71,0.00,,,0.00,,2013-04-29 13:42:00,
2013-04-29 09:52:00,78.0,67.0,30.04,North,359,0.0,0.0,68,0.00,,,0.00,,2013-04-29 13:52:00,
2013-04-29 10:02:00,79.0,66.0,30.04,SE,138,0.0,0.0,65,0.00,,,0.00,,2013-04-29 14:02:00,
2013-04-29 10:11:00,79.0,66.0,30.04,SE,138,0.0,0.0,65,0.00,,,0.00,,2013-04-29 14:11:00,
2013-04-29 10:21:00,79.0,65.0,30.04,SE,138,0.0,0.0,63,0.00,,,0.00,,2013-04-29 14:21:00,
2013-04-29 10:32:00,79.0,65.0,30.04,SE,138,0.0,0.0,62,0.00,,,0.00,,2013-04-29 14:32:00,
2013-04-29 10:42:00,79.0,65.0,30.04,SE,138,0.0,0.0,62,0.00,,,0.00,,2013-04-29 14:42:00,
2013-04-29 10:52:00,79.0,64.0,30.04,SE,138,0.0,0.0,60,0.00,,,0.00,,2013-04-29 14:52:00,
2013-04-29 11:01:00,79.0,63.0,30.03,SE,138,0.0,0.0,58,0.00,,,0.00,,2013-04-29 15:01:00,
2013-04-29 11:12:00,79.0,63.0,30.03,SE,138,0.0,0.0,58,0.00,,,0.00,,2013-04-29 15:12:00,
2013-04-29 11:21:00,80.0,64.0,30.03,SE,138,0.0,0.0,58,0.00,,,0.00,,2013-04-29 15:21:00,
2013-04-29 11:33:00,80.0,63.0,30.03,ESE,118,3.0,3.0,57,0.00,,,0.00,,2013-04-29 15:33:00,
2013-04-29 11:42:00,80.0,63.0,30.03,ESE,118,3.0,3.0,57,0.00,,,0.00,,2013-04-29 15:42:00,
2013-04-29 11:53:00,81.0,61.0,30.03,SE,131,0.0,0.0,51,0.00,,,0.00,,2013-04-29 15:53:00,
2013-04-29 12:03:00,81.0,61.0,30.03,SE,131,0.0,0.0,50,0.00,,,0.00,,2013-04-29 16:03:00,
2013-04-29 12:12:00,81.0,61.0,30.03,SE,131,0.0,0.0,50,0.00,,,0.00,,2013-04-29 16:12:00,
2013-04-29 12:23:00,82.0,59.0,30.03,North,359,0.0,0.0,46,0.00,,,0.00,,2013-04-29 16:23:00,
2013-04-29 12:33:00,82.0,60.0,30.03,East,89,3.0,3.0,47,0.00,,,0.00,,2013-04-29 16:33:00,
2013-04-29 12:42:00,82.0,60.0,30.03,East,89,3.0,3.0,47,0.00,,,0.00,,2013-04-29 16:42:00,
2013-04-29 12:52:00,82.0,60.0,30.03,North,359,0.0,0.0,47,0.00,,,0.00,,2013-04-29 16:52:00,
2013-04-29 13:02:00,82.0,59.0,30.02,North,359,0.0,0.0,46,0.00,,,0.00,,2013-04-29 17:02:00,
2013-04-29 13:12:00,82.0,59.0,30.02,North,359,0.0,0.0,46,0.00,,,0.00,,2013-04-29 17:12:00,
2013-04-29 13:22:00,82.0,61.0,30.02,North,359,0.0,0.0,50,0.00,,,0.00,,2013-04-29 17:22:00,
2013-04-29 13:32:00,82.0,60.0,30.02,North,359,0.0,0.0,47,0.00,,,0.00,,2013-04-29 17:32:00,
2013-04-29 13:42:00,82.0,60.0,30.02,North,359,0.0,0.0,47,0.00,,,0.00,,2013-04-29 17:42:00,
2013-04-29 13:52:00,83.0,61.0,30.01,SW,219,0.0,5.0,48,0.00,,,0.00,,2013-04-29 17:52:00,
2013-04-29 14:01:00,83.0,60.0,30.01,SW,228,4.0,4.0,46,0.00,,,0.00,,2013-04-29 18:01:00,
2013-04-29 14:13:00,83.0,60.0,30.01,SW,228,4.0,4.0,46,0.00,,,0.00,,2013-04-29 18:13:00,
2013-04-29 14:22:00,84.0,59.0,30.00,ESE,115,0.0,0.0,43,0.00,,,0.00,,2013-04-29 18:22:00,
2013-04-29 14:32:00,84.0,60.0,29.99,ESE,115,0.0,0.0,45,0.00,,,0.00,,2013-04-29 18:32:00,
2013-04-29 14:42:00,84.0,60.0,29.99,ESE,115,0.0,0.0,45,0.00,,,0.00,,2013-04-29 18:42:00,
2013-04-29 14:52:00,84.0,60.0,29.98,ESE,115,0.0,0.0,45,0.00,,,0.00,,2013-04-29 18:52:00,
2013-04-29 15:01:00,84.0,60.0,29.97,ESE,115,0.0,0.0,44,0.00,,,0.00,,2013-04-29 19:01:00,
2013-04-29 15:11:00,84.0,60.0,29.97,ESE,115,0.0,0.0,44,0.00,,,0.00,,2013-04-29 19:11:00,
2013-04-29 15:21:00,84.0,57.0,29.97,SW,224,3.0,0.0,40,0.00,,,0.00,,2013-04-29 19:21:00,
2013-04-29 15:32:00,85.0,61.0,29.96,SW,224,0.0,0.0,45,0.00,,,0.00,,2013-04-29 19:32:00,
2013-04-29 15:42:00,85.0,61.0,29.96,SW,224,0.0,0.0,45,0.00,,,0.00,,2013-04-29 19:42:00,
2013-04-29 15:52:00,85.0,60.0,29.95,SW,224,0.0,0.0,43,0.00,,,0.00,,2013-04-29 19:52:00,
2013-04-29 16:02:00,84.0,61.0,29.94,SW,224,0.0,0.0,46,0.00,,,0.00,,2013-04-29 20:02:00,
2013-04-29 16:12:00,84.0,61.0,29.94,SW,224,0.0,0.0,46,0.00,,,0.00,,2013-04-29 20:12:00,
2013-04-29 16:21:00,84.0,62.0,29.93,SW,224,0.0,0.0,47,0.00,,,0.00,,2013-04-29 20:21:00,
2013-04-29 16:32:00,85.0,62.0,29.92,SW,224,0.0,0.0,46,0.00,,,0.00,,2013-04-29 20:32:00,
2013-04-29 16:42:00,85.0,62.0,29.92,SW,224,0.0,0.0,46,0.00,,,0.00,,2013-04-29 20:42:00,
2013-04-29 16:52:00,85.0,61.0,29.92,SW,224,0.0,0.0,45,0.00,,,0.00,,2013-04-29 20:52:00,
2013-04-29 17:01:00,84.0,61.0,29.92,SW,224,0.0,0.0,46,0.00,,,0.00,,2013-04-29 21:01:00,
2013-04-29 17:11:00,84.0,61.0,29.92,SW,224,0.0,0.0,46,0.00,,,0.00,,2013-04-29 21:11:00,
2013-04-29 17:21:00,84.0,62.0,29.92,SW,224,0.0,0.0,47,0.00,,,0.00,,2013-04-29 21:21:00,
2013-04-29 17:33:00,85.0,62.0,29.93,SW,224,0.0,0.0,46,0.00,,,0.00,,2013-04-29 21:33:00,
2013-04-29 17:42:00,85.0,62.0,29.93,SW,224,0.0,0.0,46,0.00,,,0.00,,2013-04-29 21:42:00,
2013-04-29 17:53:00,85.0,61.0,29.92,SW,224,0.0,0.0,45,0.00,,,0.00,,2013-04-29 21:53:00,
2013-04-29 18:02:00,85.0,61.0,29.91,ENE,73,4.0,5.0,44,0.00,,,0.00,,2013-04-29 22:02:00,
2013-04-29 18:13:00,85.0,61.0,29.91,ENE,73,4.0,5.0,44,0.00,,,0.00,,2013-04-29 22:13:00,
2013-04-29 18:23:00,84.0,61.0,29.92,North,359,0.0,0.0,46,0.00,,,0.00,,2013-04-29 22:23:00,
2013-04-29 18:32:00,84.0,61.0,29.92,North,359,0.0,0.0,46,0.00,,,0.00,,2013-04-29 22:32:00,
2013-04-29 18:42:00,84.0,61.0,29.92,North,359,0.0,0.0,46,0.00,,,0.00,,2013-04-29 22:42:00,
2013-04-29 18:53:00,84.0,61.0,29.92,NE,46,0.0,2.0,46,0.00,,,0.00,,2013-04-29 22:53:00,
2013-04-29 19:02:00,82.0,66.0,29.92,North,359,6.0,6.0,59,0.00,,,0.00,,2013-04-29 23:02:00,
2013-04-29 19:12:00,82.0,66.0,29.92,North,359,6.0,6.0,59,0.00,,,0.00,,2013-04-29 23:12:00,
2013-04-29 19:22:00,81.0,68.0,29.92,North,359,6.0,0.0,64,0.00,,,0.00,,2013-04-29 23:22:00,
2013-04-29 19:32:00,80.0,67.0,29.91,North,359,0.0,0.0,65,0.00,,,0.00,,2013-04-29 23:32:00,
2013-04-29 19:42:00,80.0,67.0,29.91,North,359,0.0,0.0,65,0.00,,,0.00,,2013-04-29 23:42:00,
2013-04-29 19:52:00,79.0,68.0,29.92,ENE,62,0.0,0.0,69,0.00,,,0.00,,2013-04-29 23:52:00,
2013-04-29 20:01:00,78.0,71.0,29.91,ENE,68,0.0,0.0,78,0.00,,,0.00,,2013-04-30 00:01:00,
2013-04-29 20:11:00,78.0,71.0,29.91,ENE,68,0.0,0.0,78,0.00,,,0.00,,2013-04-30 00:11:00,
2013-04-29 20:21:00,76.0,71.0,29.92,ENE,60,0.0,0.0,85,0.07,,,0.00,,2013-04-30 00:21:00,
2013-04-29 20:32:00,75.0,72.0,29.93,ENE,60,0.0,0.0,89,0.07,,,0.00,,2013-04-30 00:32:00,
2013-04-29 20:42:00,75.0,72.0,29.93,ENE,60,0.0,0.0,89,0.07,,,0.00,,2013-04-30 00:42:00,
2013-04-29 20:52:00,73.0,69.0,29.93,East,93,4.0,5.0,88,0.07,,,0.00,,2013-04-30 00:52:00,
2013-04-29 21:02:00,71.0,69.0,29.96,SSE,160,0.0,0.0,92,0.07,,,0.00,,2013-04-30 01:02:00,
2013-04-29 21:11:00,71.0,69.0,29.96,SSE,160,0.0,0.0,92,0.07,,,0.00,,2013-04-30 01:11:00,
2013-04-29 21:22:00,70.0,69.0,29.96,North,359,0.0,0.0,96,0.53,,,0.00,,2013-04-30 01:22:00,
2013-04-29 21:32:00,69.0,68.0,29.96,North,359,0.0,0.0,97,0.53,,,0.00,,2013-04-30 01:32:00,
2013-04-29 21:41:00,69.0,68.0,29.96,North,359,0.0,0.0,97,0.53,,,0.00,,2013-04-30 01:41:00,
2013-04-29 21:52:00,69.0,69.0,29.96,North,359,0.0,0.0,99,0.53,,,0.00,,2013-04-30 01:52:00,
2013-04-29 22:01:00,68.0,68.0,29.97,North,359,0.0,0.0,99,0.53,,,0.00,,2013-04-30 02:01:00,
2013-04-29 22:11:00,68.0,68.0,29.97,North,359,0.0,0.0,100,0.21,,,0.00,,2013-04-30 02:11:00,
2013-04-29 22:21:00,68.0,68.0,29.97,North,359,0.0,0.0,100,0.21,,,0.00,,2013-04-30 02:21:00,
2013-04-29 22:31:00,68.0,68.0,29.98,North,359,0.0,0.0,100,0.21,,,0.00,,2013-04-30 02:31:00,
2013-04-29 22:41:00,68.0,68.0,29.98,North,359,0.0,0.0,100,0.21,,,0.00,,2013-04-30 02:41:00,
2013-04-29 22:51:00,68.0,68.0,29.98,North,359,0.0,0.0,100,0.21,,,0.00,,2013-04-30 02:51:00,
2013-04-29 23:01:00,68.0,68.0,29.99,North,359,0.0,0.0,100,0.21,,,0.00,,2013-04-30 03:01:00,
2013-04-29 23:11:00,68.0,68.0,29.99,North,359,0.0,0.0,100,0.18,,,0.00,,2013-04-30 03:11:00,
2013-04-29 23:21:00,68.0,68.0,29.99,North,359,0.0,0.0,100,0.18,,,0.00,,2013-04-30 03:21:00,
2013-04-29 23:33:00,68.0,68.0,29.98,North,359,0.0,0.0,100,0.18,,,0.00,,2013-04-30 03:33:00,
2013-04-29 23:42:00,68.0,68.0,29.98,North,359,0.0,0.0,100,0.18,,,0.00,,2013-04-30 03:42:00,
2013-04-29 23:52:00,68.0,68.0,29.98,North,359,0.0,0.0,100,0.18,,,0.00,,2013-04-30 03:52:00,